Theta_e
312 312 312 311 310 310 310 310 310 310 310 310 311 312 312 311 309 312 316 313 312 310 309 315 313 312 315 318 319 320 320 321 323 325 327 328 327 326 327 327 326 326 327 328 326
310 311 312 310 310 309 310 310 310 310 310 310 310 311 310 309 311 313 312 310 308 305 311 316 315 315 316 317 319 320 320 320 321 321 322 324 323 323 323 328 327 327 327 325 326
309 310 310 313 312 309 309 310 310 310 310 310 310 309 308 309 317 319 314 313 309 304 313 314 316 316 316 318 319 320 320 320 321 322 322 322 322 322 321 323 325 327 327 326 325
308 307 308 310 312 312 308 308 311 310 310 309 308 308 307 313 319 320 309 311 309 310 313 313 317 316 317 317 319 319 320 320 321 321 320 320 320 320 320 321 320 321 322 322 323
307 307 307 307 308 310 311 308 308 310 309 309 309 309 311 318 316 318 310 309 315 315 314 316 317 317 317 318 318 319 319 319 319 320 319 319 318 318 319 320 320 319 320 320 321
306 307 307 307 306 307 309 311 307 307 309 309 310 309 315 317 311 316 316 317 317 316 315 316 317 318 319 319 318 319 319 319 318 318 319 318 318 318 318 319 319 319 320 320 321
304 306 306 306 306 305 308 310 310 306 307 311 311 312 317 318 311 315 315 314 316 314 316 315 318 318 319 319 319 319 318 318 319 318 319 319 319 319 319 319 319 319 320 321 321
300 302 303 304 305 305 307 309 307 306 307 311 311 314 320 314 312 313 317 317 316 314 315 317 317 318 318 318 317 317 318 318 320 319 318 317 318 320 319 319 318 319 319 320 320
299 300 301 303 304 306 308 308 312 311 310 311 315 317 322 313 312 313 317 317 315 314 315 316 317 318 318 317 317 318 318 319 319 319 318 317 318 319 319 319 319 319 319 320 320
298 299 301 303 307 308 308 309 313 314 313 315 316 320 321 318 316 315 316 317 315 316 317 317 318 319 318 317 317 318 317 317 317 318 317 317 317 318 318 319 319 319 319 319 320
299 299 303 307 308 308 309 315 322 324 319 322 321 320 318 319 317 317 316 317 316 317 318 318 319 319 318 318 317 317 318 318 318 318 318 318 319 319 319 319 320 320 320 320 320
301 301 305 307 308 307 309 317 317 317 320 322 321 319 318 318 319 319 317 318 318 319 319 320 319 318 318 318 318 318 317 318 318 318 319 319 320 321 321 321 321 321 321 320 321
301 303 305 306 308 311 315 316 315 318 321 321 320 320 319 318 319 318 318 317 318 319 319 320 320 317 316 318 317 318 318 319 319 319 319 319 321 321 321 322 322 321 321 321 320
304 305 305 306 311 317 317 315 315 317 324 323 321 319 319 318 319 318 316 318 318 318 319 319 319 318 317 316 317 318 318 318 318 319 321 322 323 323 322 322 322 321 321 321 321
307 307 305 305 312 317 314 315 316 319 334 323 320 318 318 319 319 318 317 316 317 317 318 319 318 317 317 318 318 318 319 320 320 321 323 323 324 323 322 322 321 322 321 321 320
307 307 308 313 313 314 314 315 318 328 329 323 320 320 318 319 318 319 319 317 318 318 318 318 319 318 318 318 318 318 319 320 321 322 324 323 324 323 321 320 320 320 321 320 320
308 308 310 313 316 313 315 319 328 325 321 322 320 319 320 319 319 318 318 319 319 319 319 318 320 319 319 319 319 319 322 326 326 325 325 323 321 320 319 319 320 321 320 321 322
309 311 314 314 314 315 318 325 328 320 322 321 320 320 321 320 318 319 318 319 319 319 320 321 323 322 320 320 321 321 323 326 327 326 324 322 320 318 318 320 320 320 320 319 320
309 318 316 314 316 318 323 326 325 323 320 320 319 319 322 322 322 321 321 320 319 320 320 322 324 321 320 319 320 320 323 321 323 322 320 318 318 318 318 321 321 320 318 318 318
310 318 317 315 318 321 325 323 321 319 319 319 321 320 321 324 322 321 322 321 320 320 320 321 324 321 320 319 319 319 318 320 321 324 323 318 317 315 318 318 317 317 316 317 317
314 322 316 317 319 324 326 324 321 319 318 320 321 321 321 320 320 321 321 319 318 318 318 318 321 322 319 319 319 320 320 318 319 321 324 322 316 317 317 317 317 316 316 317 318
318 323 316 317 325 323 322 321 313 318 319 319 319 320 321 320 319 320 319 320 317 317 318 319 321 322 321 320 317 317 317 316 320 322 321 322 321 318 317 316 316 316 316 317 318
318 318 316 316 324 324 321 319 318 318 319 318 319 319 320 321 319 319 320 318 317 316 319 320 321 321 321 320 317 317 315 315 316 318 321 325 320 317 317 317 317 316 317 317 317
317 320 318 317 318 320 320 320 319 318 317 318 318 319 319 318 318 318 318 317 315 315 313 314 318 319 320 319 317 316 315 315 316 324 319 318 317 318 317 316 317 318 318 317 317
316 319 315 320 319 317 318 318 318 318 317 317 318 319 320 321 319 318 317 317 316 316 314 315 318 317 316 316 315 314 314 314 314 315 317 316 316 316 316 318 318 317 317 316 314
315 314 314 315 315 316 314 317 317 316 315 317 318 317 318 318 318 320 319 319 317 316 316 316 321 317 316 315 314 314 313 313 314 314 314 317 318 317 316 316 315 314 312 313 312
312 312 314 313 315 315 316 314 314 313 313 314 314 315 317 315 314 315 316 316 318 319 318 318 320 320 319 316 316 316 317 318 317 316 317 318 317 316 315 314 312 311 312 312 312
Wind_Speed
21 20 20 19 18 17 16 14 13 13 13 12 12 14 14 16 18 17 18 12 7 17 12 11 14 21 20 18 21 20 17 20 26 23 22 18 12 14 18 15 13 12 12 8 6
23 21 20 19 18 17 16 15 13 12 12 11 12 12 14 15 17 23 19 15 16 8 12 16 14 17 17 19 17 14 17 24 19 18 18 19 12 18 15 20 20 16 16 15 10
26 25 22 21 19 18 16 15 15 13 12 12 11 12 13 10 14 2 13 11 13 14 17 14 11 16 20 16 19 20 20 20 17 4 4 10 13 14 16 21 21 18 16 14 14
26 27 28 24 21 20 18 15 15 13 12 11 11 10 9 8 4 7 5 7 10 14 16 12 12 16 17 18 19 18 19 23 13 6 12 16 16 18 16 19 15 18 17 15 17
25 27 27 28 26 22 20 18 15 14 13 12 10 9 7 9 11 4 3 11 9 14 17 13 13 14 16 15 17 16 16 12 13 12 13 15 17 18 20 17 15 16 18 18 20
26 26 27 27 29 27 24 20 17 15 13 12 9 7 9 14 4 3 9 11 8 11 15 13 10 12 12 10 14 16 19 11 15 17 16 16 17 16 15 14 16 17 16 17 18
26 27 27 28 29 28 29 22 19 16 15 11 9 6 10 16 1 5 10 12 9 11 10 12 8 6 7 10 9 5 11 13 15 15 14 12 17 19 20 16 15 14 15 15 16
26 26 28 29 30 29 32 28 19 15 12 9 8 9 8 1 7 9 13 11 7 8 10 3 8 13 10 3 5 14 14 15 19 19 13 9 14 9 7 6 10 13 12 12 14
27 28 28 30 31 29 34 25 10 9 7 7 6 12 9 4 10 13 13 10 10 10 7 5 10 14 10 11 14 12 14 19 9 12 11 14 12 1 3 8 11 12 13 13 15
27 29 30 30 31 33 33 9 4 8 5 5 12 6 9 10 11 12 13 8 9 10 10 11 9 12 13 14 13 10 17 13 7 5 12 14 17 14 13 14 15 13 14 12 14
28 29 30 34 33 33 24 4 6 7 11 11 6 10 4 5 7 10 14 12 13 11 13 13 11 13 15 11 14 10 13 12 10 4 10 14 16 14 13 14 15 14 15 14 15
29 30 33 39 36 26 6 8 9 10 14 19 15 13 10 0 9 13 16 13 12 14 16 13 13 15 9 9 9 12 13 13 12 10 10 15 17 17 17 18 18 17 15 15 14
33 36 40 35 27 8 10 12 12 8 8 5 3 8 10 13 10 15 15 17 13 15 16 15 6 5 5 12 12 13 14 14 13 11 13 16 21 23 20 18 15 11 13 14 14
37 41 37 33 11 4 7 2 3 5 6 10 11 6 7 11 8 7 14 14 11 15 15 13 15 9 10 11 12 13 10 9 9 12 12 13 15 17 17 16 12 13 12 11 12
40 46 33 11 10 3 5 3 6 3 4 8 7 7 13 11 8 15 14 14 15 11 7 12 7 8 12 10 3 11 10 9 14 16 17 19 12 16 17 15 11 6 10 13 16
42 40 16 3 6 7 5 7 5 6 1 4 6 10 14 12 7 7 11 13 8 14 12 17 6 8 10 9 8 11 13 18 20 17 16 21 17 8 5 10 10 12 15 17 17
42 28 9 4 4 5 7 8 7 6 3 1 5 7 11 9 10 8 9 13 13 11 12 15 19 18 13 12 13 15 14 13 14 12 13 8 10 10 14 8 8 8 7 10 14
42 12 7 5 7 7 8 9 5 5 3 2 6 6 10 3 7 3 6 12 13 14 12 11 13 5 4 7 14 13 7 9 14 14 17 21 13 10 1 8 4 5 6 8 8
31 5 5 2 3 4 8 8 6 9 5 7 12 12 9 3 7 6 10 10 10 8 10 7 11 3 4 7 7 4 8 5 11 14 14 15 18 20 13 8 8 5 12 5 5
17 10 3 4 5 9 9 7 3 2 7 8 11 8 9 7 9 3 6 6 9 13 12 5 12 8 4 5 11 11 11 9 6 7 11 8 14 12 8 7 7 12 14 9 12
8 5 7 4 6 8 8 5 4 5 6 7 11 12 11 12 9 9 6 4 8 7 6 9 10 13 5 10 14 8 11 8 7 8 8 12 7 14 15 12 12 13 16 17 18
6 4 6 4 8 3 6 5 3 9 4 9 8 11 13 14 14 16 11 8 2 6 7 6 6 10 16 13 2 12 13 14 10 9 10 11 16 19 5 10 13 17 14 15 17
5 4 3 6 6 5 4 7 5 8 6 4 7 8 11 13 11 9 14 2 4 4 3 1 5 8 11 15 6 8 9 9 13 13 15 13 15 19 18 19 19 21 16 13 14
4 3 3 0 2 7 8 8 5 2 8 7 9 11 13 13 13 8 5 4 3 7 6 4 10 11 12 14 7 11 11 12 14 10 15 17 23 22 21 22 20 19 19 19 20
2 4 4 3 3 7 6 9 9 6 3 5 5 5 6 6 11 13 12 8 7 8 7 8 12 13 17 19 19 17 17 17 18 19 18 21 25 24 21 20 19 21 21 22 21
6 4 2 6 4 7 3 3 7 3 4 6 8 9 9 6 12 16 13 12 8 6 10 7 8 12 15 17 16 18 18 19 19 19 22 21 22 21 21 20 21 22 23 25 27
1 1 5 2 3 5 3 3 3 7 7 10 10 9 11 11 11 13 12 12 12 12 10 7 6 10 13 14 10 13 11 9 8 10 14 16 20 22 22 20 22 24 25 27 29
Wind_Direction
359 355 350 343 337 332 328 322 318 315 307 305 306 304 304 301 300 286 252 244 226 251 250 256 207 215 225 227 228 224 237 236 240 238 247 239 217 254 262 267 276 259 292 316 338
6 2 356 349 343 335 331 326 318 310 307 305 301 305 301 303 295 273 249 248 244 227 220 227 195 205 214 216 216 222 230 238 235 237 253 253 213 250 264 245 242 252 250 250 258
9 2 356 351 347 339 334 324 321 313 305 300 296 292 299 318 278 147 174 232 228 211 231 251 207 203 221 215 206 221 242 230 236 265 253 257 246 244 250 252 260 266 271 274 273
4 5 4 356 347 343 333 325 315 309 302 299 301 306 314 286 324 65 308 218 202 205 226 233 219 203 224 210 219 227 236 254 254 192 247 241 261 265 249 258 269 277 285 284 273
356 357 357 359 356 346 335 327 313 302 298 299 305 315 312 231 254 74 115 148 157 191 217 220 215 211 224 210 214 218 247 237 260 244 229 243 244 258 258 263 258 256 261 257 256
345 348 349 350 351 348 340 323 308 295 291 287 299 306 264 258 71 140 156 168 186 209 220 224 234 235 279 238 204 210 233 218 238 239 235 234 248 239 249 243 252 250 254 256 252
341 342 343 343 343 341 341 327 308 287 278 273 278 273 267 247 355 189 179 197 218 223 247 234 285 225 257 230 233 222 233 227 230 233 242 245 255 238 248 247 254 262 278 268 265
338 338 338 338 339 336 337 333 309 281 267 255 256 255 268 147 227 215 197 214 222 227 262 210 249 265 253 55 220 237 227 248 215 211 221 225 263 216 179 203 235 244 256 278 278
336 336 336 333 334 333 332 329 314 275 221 194 241 230 264 162 219 206 202 220 202 205 213 258 248 248 200 237 227 206 243 215 164 186 231 200 258 127 138 242 236 260 268 257 259
335 335 333 330 330 329 327 314 299 102 144 205 259 246 251 226 167 184 197 223 200 205 220 222 233 236 224 229 237 241 207 245 264 230 203 248 252 254 266 261 263 258 251 253 264
335 334 333 328 326 325 324 241 206 189 203 229 225 248 116 127 165 192 188 209 206 214 230 204 234 231 245 226 283 323 292 291 289 285 286 275 278 275 274 269 264 261 256 242 241
333 332 330 325 320 317 268 240 347 321 298 220 242 255 241 317 199 188 182 205 208 219 216 237 232 256 267 284 269 262 262 260 260 260 269 278 277 281 276 273 274 273 271 265 254
334 333 333 324 325 296 228 264 299 314 276 149 193 222 210 205 225 176 200 208 213 233 239 243 281 56 279 248 246 243 261 268 280 305 289 278 266 254 250 248 256 249 259 272 272
335 335 335 321 308 317 272 360 245 306 272 139 179 139 185 183 225 249 199 221 232 243 234 248 253 213 242 243 232 255 243 273 278 270 273 309 296 287 275 261 251 261 253 266 291
336 340 330 293 307 258 5 308 323 223 245 151 105 126 153 195 118 186 202 233 252 225 267 239 212 225 242 251 212 273 332 284 281 278 277 269 258 265 254 246 258 27 358 340 325
335 340 338 58 221 276 307 301 255 234 135 124 132 164 173 215 195 151 199 233 263 265 247 270 290 258 268 295 293 282 291 272 265 260 257 258 252 283 329 353 347 358 342 331 308
333 333 318 278 0 324 306 248 242 272 110 52 151 208 214 184 206 181 209 210 239 217 237 258 259 242 218 262 248 236 255 276 265 243 255 297 325 318 319 22 27 335 336 334 348
333 317 294 259 285 298 272 250 277 66 345 49 291 273 255 276 218 219 262 249 253 264 286 272 268 310 215 251 290 296 259 277 295 292 299 322 298 288 332 144 158 258 280 294 325
337 294 248 288 284 282 270 261 353 18 9 322 302 259 221 246 305 203 265 261 270 286 256 282 258 183 270 299 263 346 270 320 293 286 276 264 254 245 243 120 195 5 298 307 320
326 283 80 310 268 270 261 277 310 66 332 314 289 317 292 193 218 209 207 258 262 279 294 282 291 255 180 252 253 255 302 277 243 281 289 304 322 296 29 343 265 276 317 306 290
287 256 61 329 255 248 250 360 341 63 340 323 314 306 307 298 271 224 224 199 219 232 269 286 260 274 264 240 256 183 239 216 235 248 272 295 282 0 337 333 326 316 310 303 305
279 264 32 330 249 224 289 31 43 288 294 312 293 293 290 284 281 274 258 221 124 308 281 287 278 260 259 265 323 290 299 297 271 247 243 268 273 273 306 277 271 278 312 325 336
299 299 62 284 281 295 85 292 256 292 316 306 290 287 295 294 288 283 272 274 279 273 305 317 251 271 267 226 177 256 250 247 267 271 257 269 277 301 293 289 297 304 319 298 301
283 282 137 226 52 319 333 286 286 125 292 308 288 297 292 277 264 263 268 179 230 265 63 320 270 269 276 300 280 278 261 257 270 255 268 268 281 286 297 306 325 328 317 319 321
286 78 356 322 75 329 305 302 288 333 289 302 281 323 331 278 306 258 264 242 235 230 243 245 265 272 274 282 287 284 275 272 263 265 268 278 282 293 311 340 319 321 324 311 303
323 342 327 283 301 297 168 32 313 298 309 309 293 348 313 292 298 300 316 311 257 283 250 229 266 267 265 264 274 266 267 263 264 267 271 292 306 313 319 319 327 333 334 319 309
16 252 278 160 219 264 5 284 293 269 277 258 285 321 291 313 313 303 296 268 269 285 286 280 263 274 278 294 289 266 266 279 266 314 312 298 308 318 323 334 326 322 313 304 302